Regional Weather Roundup
Issued by NWS

Home | Current Version | Previous Version | Text Only | Print | Product List | Glossary Off
Versions: 1 2 3 4 5 6 7 8 9 10 11 12 13 14 15 16 17 18 19 20 21 22 23 24 25 26 27 28 29 30 31 32 33 34 35 36 37 38 39 40 41 42 43 44 45 46 47 48 49 50

000
ASUS43 KOAX 080902
RWRNE

WEATHER ROUNDUP FOR NEBRASKA
NATIONAL WEATHER SERVICE OMAHA NE
300 AM CST MON FEB 08 2016

NOTES: SATELLITE DATA IS BEING USED TO AUGMENT CLOUD COVER ABOVE
       12000 FEET.
       "FAIR" INDICATES FEW OR NO CLOUDS BELOW 12,000 FEET WITH NO
       SIGNIFICANT WEATHER AND/OR OBSTRUCTIONS TO VISIBILITY.

  * THESE STATIONS DO NOT REPORT WEATHER SUCH AS RAIN...SNOW OR FOG.

NEZ001>004-019>022-054>056-081000-
NEBRASKA PANHANDLE

CITY           SKY/WX    TMP DP  RH WIND       PRES   REMARKS
SCOTTSBLUFF    CLEAR     24  11  57 NW18      30.37S WCI  10
ALLIANCE       CLOUDY    20  10  65 NW17      30.29S WCI   5
CHADRON        CLOUDY    25  13  60 W18       30.33F WCI  11
SIDNEY         CLEAR     25  10  53 NW26G37   30.31F WCI   9
$$

NEZ057>060-069>072-079>082-081000-
SOUTHWEST NEBRASKA

CITY           SKY/WX    TMP DP  RH WIND       PRES   REMARKS
NORTH PLATTE   CLEAR     27  13  55 NW22G28   30.23R WCI  13
IMPERIAL       CLEAR     26  12  55 NW22G30   30.29R WCI  12
MCCOOK         CLEAR     24  14  65 NW16G26   30.26R WCI  11
$$

NEZ005>010-023>029-035>040-094-081000-
NORTH CENTRAL NEBRASKA

CITY           SKY/WX    TMP DP  RH WIND       PRES   REMARKS
VALENTINE      CLEAR     28  16  60 NW25G36   30.20R WCI  13
BROKEN BOW     CLEAR     30  15  53 NW32G43   30.14F WCI  14
ORD            CLEAR     30  17  58 NW26G40   30.11R WCI  16
$$

NEZ041-046>049-061>064-073>077-083>087-081000-
SOUTH CENTRAL NEBRASKA

CITY           SKY/WX    TMP DP  RH WIND       PRES   REMARKS
GRAND ISLAND   MOCLDY    31  18  58 NW29G44   30.11S WCI  16
HASTINGS       PTCLDY    31  17  56 NW25G36   30.11S WCI  17
$$

NEZ011>018-030>034-042>045-081000-
NORTHEAST NEBRASKA

CITY           SKY/WX    TMP DP  RH WIND       PRES   REMARKS
NORFOLK        FLURRIES  30  22  72 N32G39    30.02R WCI  14
COLUMBUS *     CLOUDY    32  16  51 NW15      30.04R WCI  22
TEKAMAH        MIX PCPN  30  21  69 NW25      30.00R WCI  16
$$

NEZ050>053-065>068-078-088>093-081000-
SOUTHEAST NEBRASKA

CITY           SKY/WX    TMP DP  RH WIND       PRES   REMARKS
LINCOLN        CLOUDY    34  20  56 NW17      30.04S WCI  23
OMAHA EPPLEY   CLOUDY    30  21  69 NW26G33   29.98R WCI  16
FALLS CITY     MOCLDY    34  21  59 NW22G36   30.00F WCI  22
$$

NEZ044-045-051>053-067-081000-
OMAHA AREA

CITY           SKY/WX    TMP DP  RH WIND       PRES   REMARKS
OMAHA EPPLEY   CLOUDY    30  21  69 NW26G33   29.98R WCI  16
OFFUTT AFB     PTCLDY    30  19  64 NW21G41   29.99R WCI  17
$$



USA.gov is the U.S. government's official web portal to all federal, state and local government web resources and services.